Weather History for Brady, TX

Change the Weather History Date:

Monday, December 10, 2012

  Actual Average (KJCT) Record (KJCT)
Temperature  
Mean Temperature 37 °F -  
Max Temperature 44 °F 60 °F 80 °F (2010)
Min Temperature 30 °F 32 °F 21 °F (1999)
Degree Days  
Heating Degree Days 28    
Moisture  
Dew Point 13 °F    
Average Humidity 40    
Maximum Humidity 64    
Minimum Humidity 27    
Precipitation  
Precipitation 0.00 in - - ()
Sea Level Pressure  
Sea Level Pressure 30.12 in    
Wind  
Wind Speed 15 mph (NNW)    
Max Wind Speed 26 mph    
Max Gust Speed 34 mph    
Visibility 10 miles    
Events      
Averages and records for this station are not official NWS values.
T = Trace of Precipitation, MM = Missing Value Source: NWS Daily Summary

Daily Weather History Graph

Daily Weather History Graph

Search for Another Location

Airport:

Trip Planner

Search our weather history database for the weather conditions in past years. The results will help you decide how hot, cold, wet, or windy it might be!

Date:

Astronomy

Dec. 10, 2012 Rise Set
Actual Time 7:25 AM CST 5:35 PM CST
Civil Twilight 6:58 AM CST 6:01 PM CST
Nautical Twilight 6:28 AM CST 6:32 PM CST
Astronomical Twilight 5:59 AM CST 7:01 PM CST
Moon 4:17 AM CST (12/10) 3:20 PM CST (12/10)
Length of Visible Light 11h 03m
Length of Day
10h 09m
Waning Crescent, 10% of the Moon is Illuminated
Dec 10
Waning Crescent
Dec 13
New
Dec 19
First Quarter
Dec 28
Full
Jan 4
Last Quarter

Hourly Weather History & Observations

Time (CST) Temp. Windchill Dew Point Humidity Pressure Visibility Wind Dir Wind Speed Gust Speed Precip Events Conditions
12:55 AM 37.4 °F 26.6 °F 12.2 °F 36% 30.08 in 10.0 mi North 21.9 mph - N/A   Overcast
1:15 AM 37.4 °F 26.6 °F 12.2 °F 36% 30.09 in 10.0 mi North 21.9 mph - N/A   Overcast
1:35 AM 37.4 °F 26.6 °F 12.2 °F 36% 30.10 in 10.0 mi North 21.9 mph - N/A   Overcast
1:55 AM 35.6 °F 23.7 °F 10.4 °F 35% 30.12 in 10.0 mi NNW 24.2 mph - N/A   Overcast
2:15 AM 35.6 °F 25.5 °F 10.4 °F 35% 30.13 in 10.0 mi NNW 17.3 mph 34.5 mph N/A   Overcast
2:55 AM 33.8 °F 21.9 °F 8.6 °F 35% 30.14 in 10.0 mi NNW 21.9 mph - N/A   Overcast
3:15 AM 33.8 °F 20.8 °F 8.6 °F 35% 30.14 in 10.0 mi North 26.5 mph - N/A   Overcast
3:35 AM 33.8 °F 21.0 °F 8.6 °F 35% 30.15 in 10.0 mi North 25.3 mph - N/A   Overcast
3:55 AM 33.8 °F 23.5 °F 8.6 °F 35% 30.14 in 10.0 mi NNW 16.1 mph - N/A   Overcast
4:15 AM 33.8 °F 22.8 °F 8.6 °F 35% 30.14 in 10.0 mi North 18.4 mph - N/A   Overcast
4:35 AM 33.8 °F 24.3 °F 8.6 °F 35% 30.15 in 10.0 mi NNW 13.8 mph - N/A   Overcast
4:55 AM 33.8 °F 24.3 °F 8.6 °F 35% 30.14 in 10.0 mi NNW 13.8 mph - N/A   Overcast
5:15 AM 33.8 °F 24.8 °F 8.6 °F 35% 30.13 in 10.0 mi NNW 12.7 mph - N/A   Overcast
5:55 AM 33.8 °F 24.3 °F 8.6 °F 35% 30.15 in 10.0 mi NNW 13.8 mph - N/A   Scattered Clouds
6:15 AM 32.0 °F 23.6 °F 8.6 °F 38% 30.15 in 10.0 mi NNW 10.4 mph - N/A   Clear
6:35 AM 32.0 °F 23.6 °F 8.6 °F 38% 30.15 in 10.0 mi NNW 10.4 mph - N/A   Clear
6:55 AM 30.2 °F 20.2 °F 8.6 °F 40% 30.15 in 10.0 mi NNW 12.7 mph - N/A   Clear
7:15 AM 30.2 °F 20.8 °F 15.8 °F 55% 30.16 in 10.0 mi NNW 11.5 mph - N/A   Clear
7:35 AM 30.2 °F 21.3 °F 17.6 °F 60% 30.17 in 10.0 mi NNW 10.4 mph - N/A   Clear
7:55 AM 30.2 °F 21.3 °F 19.4 °F 64% 30.17 in 10.0 mi NNW 10.4 mph - N/A   Clear
8:15 AM 30.2 °F 20.8 °F 19.4 °F 64% 30.17 in 10.0 mi NNW 11.5 mph - N/A   Clear
8:35 AM 30.2 °F 20.2 °F 19.4 °F 64% 30.18 in 10.0 mi NNW 12.7 mph - N/A   Clear
8:55 AM 32.0 °F 20.8 °F 17.6 °F 55% 30.17 in 10.0 mi NNW 17.3 mph - N/A   Clear
9:15 AM 32.0 °F 21.2 °F 17.6 °F 55% 30.17 in 10.0 mi NNW 16.1 mph - N/A   Clear
9:35 AM 33.8 °F 22.8 °F 17.6 °F 52% 30.17 in 10.0 mi NNW 18.4 mph - N/A   Clear
9:55 AM 33.8 °F 23.9 °F 15.8 °F 48% 30.18 in 10.0 mi NNW 15.0 mph - N/A   Clear
10:15 AM 35.6 °F 25.5 °F 17.6 °F 48% 30.17 in 10.0 mi NNW 17.3 mph 28.8 mph N/A   Clear
10:35 AM 35.6 °F 25.2 °F 17.6 °F 48% 30.17 in 10.0 mi NNW 18.4 mph - N/A   Clear
10:55 AM 37.4 °F 27.2 °F 17.6 °F 45% 30.17 in 10.0 mi NW 19.6 mph - N/A   Clear
11:15 AM 37.4 °F 26.6 °F 15.8 °F 41% 30.16 in 10.0 mi NW 21.9 mph - N/A   Clear
11:35 AM 39.2 °F 30.2 °F 15.8 °F 39% 30.16 in 10.0 mi NW 17.3 mph - N/A   Clear
11:55 AM 39.2 °F 30.5 °F 15.8 °F 39% 30.16 in 10.0 mi NNW 16.1 mph - N/A   Clear
12:15 PM 41.0 °F 32.5 °F 15.8 °F 36% 30.15 in 10.0 mi WNW 17.3 mph - N/A   Clear
12:35 PM 41.0 °F 31.9 °F 15.8 °F 36% 30.14 in 10.0 mi NW 19.6 mph - N/A   Clear
12:55 PM 42.8 °F 34.5 °F 15.8 °F 34% 30.13 in 10.0 mi WNW 18.4 mph - N/A   Clear
1:15 PM 42.8 °F 34.8 °F 14.0 °F 31% 30.12 in 10.0 mi WNW 17.3 mph - N/A   Clear
1:35 PM 42.8 °F 34.5 °F 14.0 °F 31% 30.11 in 10.0 mi NW 18.4 mph - N/A   Clear
1:55 PM 42.8 °F 35.1 °F 12.2 °F 29% 30.10 in 10.0 mi NW 16.1 mph - N/A   Clear
2:15 PM 42.8 °F 34.8 °F 12.2 °F 29% 30.09 in 10.0 mi NW 17.3 mph - N/A   Clear
2:35 PM 42.8 °F 35.4 °F 12.2 °F 29% 30.08 in 10.0 mi NW 15.0 mph - N/A   Clear
2:55 PM 44.6 °F 37.8 °F 12.2 °F 27% 30.07 in 10.0 mi NW 15.0 mph - N/A   Clear
3:15 PM 42.8 °F 36.6 °F 12.2 °F 29% 30.07 in 10.0 mi NNW 11.5 mph - N/A   Clear
3:35 PM 44.6 °F 39.2 °F 12.2 °F 27% 30.06 in 10.0 mi NNW 10.4 mph - N/A   Clear
3:55 PM 44.6 °F 38.1 °F 12.2 °F 27% 30.06 in 10.0 mi NNW 13.8 mph - N/A   Clear
4:15 PM 44.6 °F 38.4 °F 12.2 °F 27% 30.06 in 10.0 mi NW 12.7 mph - N/A   Clear
4:35 PM 42.8 °F 37.5 °F 12.2 °F 29% 30.06 in 10.0 mi NNW 9.2 mph - N/A   Clear
4:55 PM 42.8 °F 37.5 °F 12.2 °F 29% 30.07 in 10.0 mi NNW 9.2 mph - N/A   Clear
5:15 PM 42.8 °F 38.0 °F 12.2 °F 29% 30.06 in 10.0 mi NW 8.1 mph - N/A   Clear
5:35 PM 39.2 °F 34.2 °F 12.2 °F 33% 30.07 in 10.0 mi NW 6.9 mph - N/A   Clear
5:55 PM 37.4 °F 33.8 °F 12.2 °F 36% 30.06 in 10.0 mi NNW 4.6 mph - N/A   Clear
6:15 PM 35.6 °F 31.7 °F 10.4 °F 35% 30.07 in 10.0 mi NW 4.6 mph - N/A   Clear
6:35 PM 35.6 °F 32.8 °F 10.4 °F 35% 30.07 in 10.0 mi WNW 3.5 mph - N/A   Clear
6:55 PM 33.8 °F 28.6 °F 10.4 °F 38% 30.07 in 10.0 mi North 5.8 mph - N/A   Clear
7:15 PM 33.8 °F 27.7 °F 10.4 °F 38% 30.07 in 10.0 mi North 6.9 mph - N/A   Clear
7:35 PM 33.8 °F 27.7 °F 10.4 °F 38% 30.08 in 10.0 mi NNW 6.9 mph - N/A   Clear
7:55 PM 32.0 °F - 10.4 °F 41% 30.07 in 10.0 mi Calm Calm - N/A   Clear
8:15 PM 30.2 °F 26.7 °F 10.4 °F 44% 30.08 in 10.0 mi ESE 3.5 mph - N/A   Clear
8:55 PM 30.2 °F - 10.4 °F 44% 30.08 in 10.0 mi Calm Calm - N/A   Clear
9:15 PM 32.0 °F - 10.4 °F 41% 30.08 in 10.0 mi Calm Calm - N/A   Clear
9:35 PM 32.0 °F - 10.4 °F 41% 30.09 in 10.0 mi Calm Calm - N/A   Clear
9:55 PM 30.2 °F 26.7 °F 10.4 °F 44% 30.10 in 10.0 mi SSW 3.5 mph - N/A   Clear
10:15 PM 32.0 °F 28.7 °F 12.2 °F 44% 30.10 in 10.0 mi South 3.5 mph - N/A   Clear
10:35 PM 30.2 °F 26.7 °F 12.2 °F 47% 30.10 in 10.0 mi South 3.5 mph - N/A   Clear
10:55 PM 30.2 °F - 12.2 °F 47% 30.11 in 10.0 mi Calm Calm - N/A   Clear
11:15 PM 30.2 °F - 12.2 °F 47% 30.10 in 10.0 mi Calm Calm - N/A   Clear
11:35 PM 30.2 °F 26.7 °F 12.2 °F 47% 30.10 in 10.0 mi SSW 3.5 mph - N/A   Clear
11:55 PM 30.2 °F - 15.8 °F 55% 30.10 in 10.0 mi Calm Calm - N/A   Clear